星链-1071 (STARLINK-1071 )

导读 | 星芒AI

STARLINK-1071 是 SpaceX Starlink 项目中的一颗低轨通信卫星,属于第 10 批发射的星链卫星群。该卫星于 2021 年 5 月 28 日由猎鹰 9 号火箭送入近地轨道,旨在为全球提供高速互联网服务。它运行在约 550 公里的高度,设计寿命约为 5 年,并配备自动防撞系统以减少太空碎片风险。STARLINK-1071 与其他星链卫星协同工作,提升网络覆盖与连接稳定性。

基本信息
目录编号:
44934
目录名称:
STARLINK-1071
国际标识:
2020-001W
轨道中心:
EARTH
卫星名称:
星链-1071
卫星全名:
星链-1071 (STARLINK-1071 )
卫星状态:
已陨落 最后检测时间 2025-09-16
发射日期:
2020-01-07 UTC
国别 :
美国 (US)
星等 :
--
轨道信息
数据来源 国际轨道数据
星历时间: 2025-09-15T09:40:47+0800
轨道信息已过期44天
半长轴: 6584.415km
偏心率: 0.0007222
轨道倾角: 53.034°
近地点辐角 351.286°
升交点赤经 330.411°
平近点角 8.805°
近地点: 201.524km
远地点: 211.036km
周期: 88.621分钟
每日圈数: 16.249016
详细信息
固有亮度:
5
最大亮度:
2.5
卫星平台:
Starlink V1.0
覆盖范围:
全球
运营商:
太空探索技术公司
运营商所在国:
美国
制造商(研发单位):
太空探索技术公司
制造商所在国:
美国
使用方式:
暂无
卫星简介
星链(Starlink)计划是由太空探索技术公司(SpaceX)提出的一个巨型低轨卫星互联网星座项目,计划在2019年至2024年间在太空搭建由约1.2万颗卫星组成的“星链”网络,其中1584颗将部署在地球上空550千米处的近地轨道,并从2020年开始工作。该卫星仍在工作。